{"data":{"norad_id":48434,"intl_designator":"2021-040G","name":"STARLINK-2692","alt_names":[],"object_type":"PAYLOAD","status":"ACTIVE","operator":null,"country":"US","launch_date":"2021-05-09","launch_site_code":"AFETR","launch_vehicle":null,"mission":null,"orbit_class":"UNKNOWN","rcs_meters":null,"size_class":null,"mass_kg":null,"dimensions":null,"purposes":["comms"],"wikipedia_slug":null,"has_3d_model":false,"image_url":null,"decayed_at":null,"tle_current":{"epoch":"2026-09-20T04:42:25.127424Z","epoch_age_seconds":63449,"freshness":"FRESH","line1":"1 48434U 21040G   26263.19612416 -.00000021  00000+0  11103-4 0  9992","line2":"2 48434  53.1586 327.5764 0001411  97.1518 262.9644 15.31703411296843","mean_motion":15.31703411,"eccentricity":0.0001411,"inclination_deg":53.1586,"raan_deg":327.5764,"arg_perigee_deg":97.1518,"mean_anomaly_deg":262.9644,"bstar":1.1103e-5,"rev_number":29684,"period_min":94.012978600072,"perigee_km":469.76345212169,"apogee_km":471.69620234033,"semimajor_km":6848.866827231,"source":"CELESTRAK","updated_at":"2026-09-20T09:00:39.123800Z"}}}